Weather Roundup
Issued by NWS Chicago, IL

Home | Current Version | Previous Version | Graphics & Text | Print | Product List | Glossary On
Versions: 1 2 3 4 5 6 7 8 9 10 11 12 13 14 15 16 17 18 19 20 21 22 23 24 25 26 27 28 29 30 31 32 33 34 35 36 37 38 39 40 41 42 43 44 45 46 47 48 49 50
653
NZUS59 KLOT 232308
HRRLOT

CHICAGO AREA WEATHER ROUNDUP
NATIONAL WEATHER SERVICE CHICAGO/ROMEOVILLE IL
600 PM CDT SUN APR 23 2017

NOTE: "FAIR" INDICATES FEW OR NO CLOUDS BELOW 12,000 FEET WITH NO
SIGNIFICANT WEATHER AND/OR OBSTRUCTIONS TO VISIBILITY.

* THESE STATIONS ARE NOT UNDER NWS QUALITY CONTROL. THEY ALSO MAY NOT
  REPORT WEATHER SUCH AS PRECIPITATION OR FOG.

ILZ005-006-012>014-019>023-240000-
NORTHEAST ILLINOIS

CITY           SKY/WX    TMP DP  RH WIND       PRES   REMARKS
OHARE          MOSUNNY   68  30  24 E13       30.03S
MIDWAY         MOSUNNY   67  32  27 E14       30.05S
AURORA         SUNNY     72  31  22 E6        30.03S
LANSING*       SUNNY     64  35  33 NE9       30.06R
JOLIET*        SUNNY     69  34  27 SE8       30.03S
WAUKEGAN       SUNNY     48  40  73 NE12      30.05S
DUPAGE AIRPORT SUNNY     72  31  22 CALM      30.02S
WHEELING       SUNNY     66  32  28 SE12      30.04F
KANKAKEE*      SUNNY     70  20  15 NE6       30.05S
MORRIS*        SUNNY     71  25  17 CALM      30.01F
LEWIS AIRPORT* SUNNY     68  40  36 E12       30.04S
NORTHERLY ISL    N/A     59  42  53 SE3         N/A
$$

WIZ051-052-058>065-066-070>072-240000-
SOUTHEAST WISCONSIN

CITY           SKY/WX    TMP DP  RH WIND       PRES   REMARKS
MILWAUKEE      MOSUNNY   43  36  76 N15       30.10R
KENOSHA*       SUNNY     51  39  63 NE9       30.07R
RACINE*        SUNNY     43  36  76 NE14      30.10R
WAUKESHA       SUNNY     46  36  66 NE12G23   30.08
WEST BEND      SUNNY     46  36  66 NE12G18   30.08R
$$

INZ001>003-010>013-019-020-240000-
NORTHWEST INDIANA

CITY           SKY/WX    TMP DP  RH WIND       PRES   REMARKS
GARY*          SUNNY     64  12  13 NE6       30.07R
MICHIGAN CITY* NOT AVBL
RENSSELAER*    NOT AVBL
VALPARAISO     SUNNY     68  22  17 N8        30.05S
$$

LMZ740>746-240000-
SOUTHERN LAKE MICHIGAN

STATION/POSITION TIME  SKY/WX   TEMP WIND        PRES    VSBY
                                AIR  DIR/SP/G
                 (UTC)          (F)  (DEG/KT/KT) (MB)    (MI)
HARRISON CRIB    2230            56  140/ 12/ 12   N/A
BURNHAM HARBOR   2300            58  180/  2/  7   N/A
CALUMET HARBOR   2236            60   90/  6/  9 1017.3S
BURNS HARBOR     2240            59   60/  5/  5 1018.3S
MICHIGAN CITY    2240            53   20/  5/  5   N/A
$$

ABBREVIATIONS USED IN REMARKS
   TC - TEMPERATURE IN CELSIUS
  WCI - WIND CHILL INDEX
   HX - HEAT INDEX
  VSB - VISIBILITY
$$




USA.gov is the U.S. government's official web portal to all federal, state and local government web resources and services.